Regional Weather Roundup
Issued by NWS

Home | Current Version | Previous Version | Graphics & Text | Print | Product List | Glossary On
Versions: 1 2 3 4 5 6 7 8 9 10 11 12 13 14 15 16 17 18 19 20 21 22 23 24 25 26 27 28 29 30 31 32 33 34 35 36 37 38 39 40 41 42 43 44 45 46 47 48 49 50
000
ASUS43 KOAX 260602
RWRNE

WEATHER ROUNDUP FOR NEBRASKA
NATIONAL WEATHER SERVICE OMAHA NE
100 AM CDT SAT JUL 26 2014

NOTES: SATELLITE DATA IS BEING USED TO AUGMENT CLOUD COVER ABOVE
       12000 FEET.
       "FAIR" INDICATES FEW OR NO CLOUDS BELOW 12,000 FEET WITH NO
       SIGNIFICANT WEATHER AND/OR OBSTRUCTIONS TO VISIBILITY.

  * THESE STATIONS DO NOT REPORT WEATHER SUCH AS RAIN...SNOW OR FOG.

NEZ001>004-019>022-054>056-260700-
NEBRASKA PANHANDLE

CITY           SKY/WX    TMP DP  RH WIND       PRES   REMARKS
SCOTTSBLUFF    MOCLDY    69  59  70 E9        29.93S
6HR MIN TEMP:  68; 6HR MAX TEMP:  81; 6HR PCP:  0.06;

ALLIANCE       MOCLDY    69  60  73 S10       29.92S
6HR MIN TEMP:  68; 6HR MAX TEMP:  85; 6HR PCP: TRACE;

CHADRON        CLEAR     79  54  41 SW15      29.82S
6HR MIN TEMP:  79; 6HR MAX TEMP:  87;

KIMBALL        MOCLDY    67  56  67 S7        30.01S
SIDNEY         PTCLDY    69  57  65 SW9       30.00F
6HR MIN TEMP:  66; 6HR MAX TEMP:  90; 6HR PCP: TRACE;

$$

NEZ057>060-069>072-079>082-260700-
SOUTHWEST NEBRASKA

CITY           SKY/WX    TMP DP  RH WIND       PRES   REMARKS
NORTH PLATTE   CLOUDY    73  68  84 SE3       29.86F
6HR MIN TEMP:  73; 6HR MAX TEMP:  89;

IMPERIAL       PTCLDY    71  65  81 CALM      29.92F
6HR MIN TEMP:  70; 6HR MAX TEMP:  89;

LEXINGTON      MOCLDY    73  69  88 SE3       29.86F
MCCOOK         CLEAR     72  68  87 SW6       29.90R
6HR MIN TEMP:  72; 6HR MAX TEMP:  92;

OGALLALA       PTCLDY    70  62  75 CALM      29.90F
$$

NEZ005>010-023>029-035>040-094-260700-
NORTH CENTRAL NEBRASKA

CITY           SKY/WX    TMP DP  RH WIND       PRES   REMARKS
VALENTINE      PTCLDY    74  65  73 E10       29.85F
6HR MIN TEMP:  73; 6HR MAX TEMP:  90;

AINSWORTH      CLEAR     71  69  94 E8        29.86F
BROKEN BOW     CLOUDY    72  68  87 CALM      29.84F
6HR MIN TEMP:  72; 6HR MAX TEMP:  91;

O`NEILL        MOCLDY    73  67  82 NE9       29.86F
ORD            CLOUDY    73  72  96 SE3       29.81F
6HR MIN TEMP:  73; 6HR MAX TEMP:  87;

$$

NEZ041-046>049-061>064-073>077-083>087-260700-
SOUTH CENTRAL NEBRASKA

CITY           SKY/WX    TMP DP  RH WIND       PRES   REMARKS
GRAND ISLAND   MOCLDY    77  72  84 CALM      29.85S
6HR MIN TEMP:  75; 6HR MAX TEMP:  91;

AURORA         PTCLDY    74  74 100 CALM      29.84F FOG
HASTINGS       PTCLDY    73  68  84 NE6       29.85R
6HR MIN TEMP:  73; 6HR MAX TEMP:  90;

HEBRON         PTCLDY    74  71  88 CALM      29.81S
HOLDREGE       PTCLDY    72  68  88 N8        29.87R
KEARNEY *      PTCLDY    73  66  78 NW6       29.86F
YORK           PTCLDY    73  73 100 N3        29.83S FOG
$$

NEZ011>018-030>034-042>045-260700-
NORTHEAST NEBRASKA

CITY           SKY/WX    TMP DP  RH WIND       PRES   REMARKS
NORFOLK        MOCLDY    76  72  87 NE5       29.84S
6HR MIN TEMP:  76; 6HR MAX TEMP:  88;

ALBION         CLOUDY    75  72  88 CALM      29.84F
BLAIR          PTCLDY    75  72  88 NE6       29.81R
COLUMBUS *     MOCLDY    63 N/A N/A CALM      29.83S
FREMONT        MOCLDY    80  76  89 CALM      29.82R
WAYNE          PTCLDY    70  69  96 CALM      29.85S FOG
$$

NEZ050>053-065>068-078-088>093-260700-
SOUTHEAST NEBRASKA

CITY           SKY/WX    TMP DP  RH WIND       PRES   REMARKS
LINCOLN        CLEAR     78  74  87 N6        29.80S
6HR MIN TEMP:  77; 6HR MAX TEMP:  96;

OMAHA EPPLEY   MOCLDY    77  71  82 NE5       29.80R
6HR MIN TEMP:  77; 6HR MAX TEMP:  91;

BEATRICE       CLEAR     75  73  91 CALM      29.80S
FALLS CITY     CLEAR     82  71  69 SW7       29.77S
6HR MIN TEMP:  82; 6HR MAX TEMP:  99;

NEBRASKA CITY  CLEAR     77  77 100 N3        29.79S FOG
PLATTSMOUTH    PTCLDY    75  73  91 NE3       29.79S
$$

NEZ044-045-051>053-067-260700-
OMAHA AREA

CITY           SKY/WX    TMP DP  RH WIND       PRES   REMARKS
OMAHA EPPLEY   MOCLDY    77  71  82 NE5       29.80R
6HR MIN TEMP:  77; 6HR MAX TEMP:  91;

BLAIR          PTCLDY    75  72  88 NE6       29.81R
FREMONT        MOCLDY    80  76  89 CALM      29.82R
MILLARD        PTCLDY    80  74  83 CALM      29.79S
OFFUTT AFB     MOCLDY    76  76 100 NE6       29.79R
PLATTSMOUTH    PTCLDY    75  73  91 NE3       29.79S
WAHOO          FAIR      77  74  90 N6        29.81R FOG
$$


USA.gov is the U.S. government's official web portal to all federal, state and local government web resources and services.